Location: Newark
(13.8117°N, 3.6025°W)
Time: 15:49:55
(UTC+00:00)

Vanguard 2 - Pass Details

Date: 27 August 2019
Orbit: 554 x 2937 km, 32.9° (Epoch: 18 September)

Event Time Altitude Azimuth Distance (km) Brightness Sun altitude
Rises 19:22:11 0° 289° (WNW) 5,316 13.8 -13.4°
Reaches altitude 10° 19:25:26 10° 283° (WNW) 4,602 12.9 -14.1°
Maximum altitude 19:38:27 47° 215° (SW) 3,305 10.8 -17.2°
Drops below altitude 10° 19:55:08 10° 147° (SSE) 5,751 11.5 -21.1°
Enters shadow 19:55:33 - 146° (SSE) 5,831 11.5 -21.2°
Sets 19:59:52 0° 141° (SE) 6,693 - -22.2°
